GW6703 Weather Reports


time (UTC)temp
F
wind
direction
speed
knots
gust
knots
rain 1hr
in
rain 24hr
in
rain mn
in
humidity
%
barometer
mb
20260902133222 74 301 3.5 8.7 0.00 0.11 0.00 51 1019.6
20260902132622 74 212 6.1 8.7 0.00 0.11 0.00 51 1019.6
20260902132122 74 255 4.3 5.2 0.00 0.11 0.00 51 1019.9
20260902131524 74 271 4.3 7.8 0.00 0.11 0.00 52 1019.7
20260902131021 74 263 2.6 6.1 0.00 0.11 0.00 53 1019.6
20260902130422 73 257 5.2 6.1 0.00 0.11 0.00 53 1019.8
20260902125822 73 287 4.3 5.2 0.00 0.11 0.00 53 1019.8
20260902125223 73 294 6.1 8.7 0.00 0.11 0.00 55 1019.8
20260902124723 72 316 2.6 7.0 0.00 0.11 0.00 53 1020.0
20260902124222 73 271 3.5 4.3 0.00 0.11 0.00 53 1020.1
20260902123722 73 259 5.2 5.2 0.00 0.11 0.00 52 1019.9
20260902123223 74 268 5.2 5.2 0.00 0.11 0.00 55 1019.9
20260902122723 73 269 2.6 7.8 0.00 0.11 0.00 54 1020.0
20260902122223 74 262 4.3 5.2 0.00 0.11 0.00 53 1020.0
20260902121723 74 350 1.7 5.2 0.00 0.11 0.00 52 1020.0
20260902121123 73 287 0.9 5.2 0.00 0.11 0.00 54 1020.2
20260902120623 72 233 4.3 4.3 0.00 0.11 0.00 56 1020.3
20260902120023 72 239 4.3 4.3 0.00 0.11 0.00 55 1020.3
20260902115522 71 274 1.7 3.5 0.00 0.11 0.00 56 1020.4
20260902114923 72 296 1.7 3.5 0.00 0.11 0.00 55 1020.4
20260902114323 72 344 0.9 2.6 0.00 0.11 0.00 55 1020.7
20260902113822 72 302 2.6 4.3 0.00 0.11 0.00 56 1020.7
20260902113322 72 289 0.9 2.6 0.00 0.11 0.00 58 1020.4
20260902112822 71 187 0.9 2.6 0.00 0.11 0.00 57 1020.4
20260902112322 71 356 1.7 3.5 0.00 0.11 0.00 56 1020.5
20260902111822 71 278 4.3 5.2 0.00 0.11 0.00 56 1020.6
20260902111322 72 268 4.3 7.0 0.00 0.11 0.00 56 1020.4
20260902110822 72 275 4.3 4.3 0.00 0.11 0.00 54 1020.4
20260902110322 71 285 1.7 1.7 0.00 0.11 0.00 57 1020.8
20260902105724 71 306 3.5 4.3 0.00 0.11 0.00 58 1020.7
20260902105125 71 284 2.6 4.3 0.00 0.11 0.00 57 1021.0
20260902104523 70 256 3.5 4.3 0.00 0.11 0.00 57 1021.0
20260902103926 71 253 4.3 5.2 0.00 0.11 0.00 56 1020.8
20260902103323 71 274 2.6 5.2 0.00 0.11 0.00 56 1021.0
20260902102823 71 282 4.3 8.7 0.00 0.11 0.00 55 1021.1
20260902102223 70 299 1.7 3.5 0.00 0.11 0.00 59 1020.9
20260902101722 69 273 2.6 4.3 0.00 0.11 0.00 60 1021.1
20260902101125 69 266 1.7 6.1 0.00 0.11 0.00 61 1021.0
20260902100525 69 261 1.7 3.5 0.00 0.11 0.00 65 1021.2
20260902100022 69 291 1.7 3.5 0.00 0.11 0.00 65 1021.3
20260902095422 68 268 4.3 7.0 0.00 0.11 0.00 64 1021.2
20260902094922 68 259 1.7 4.3 0.00 0.11 0.00 64 1021.4
20260902094422 69 342 2.6 4.3 0.00 0.11 0.00 64 1021.1
20260902093922 69 282 1.7 4.3 0.00 0.11 0.00 65 1021.2
20260902093423 68 290 4.3 5.2 0.00 0.11 0.00 67 1021.4
20260902092922 67 271 2.6 5.2 0.00 0.11 0.00 66 1021.3
20260902092323 68 273 2.6 5.2 0.00 0.11 0.00 66 1021.2
20260902091822 68 266 2.6 7.0 0.00 0.11 0.00 68 1021.3
20260902091322 68 230 2.6 7.8 0.00 0.11 0.00 68 1021.3
20260902090822 68 271 3.5 5.2 0.00 0.11 0.00 70 1021.4
20260902090322 68 305 2.6 7.8 0.00 0.11 0.00 69 1021.5
20260902085822 68 258 4.3 8.7 0.00 0.11 0.00 70 1021.5
20260902085322 67 233 1.7 4.3 0.00 0.11 0.00 73 1021.3
20260902084725 67 305 0.0 3.5 0.00 0.11 0.00 75 1021.4
20260902084125 66 260 1.7 5.2 0.00 0.11 0.00 76 1021.1
20260902083622 66 253 2.6 3.5 0.00 0.11 0.00 79 1021.5
20260902083022 65 321 1.7 3.5 0.00 0.11 0.00 80 1021.1
20260902082422 65 318 1.7 5.2 0.00 0.11 0.00 81 1021.5
20260902081922 64 264 1.7 4.3 0.00 0.11 0.00 81 1021.3
20260902081325 64 249 1.7 4.3 0.00 0.11 0.00 83 1021.5
20260902080722 64 255 1.7 4.3 0.00 0.11 0.00 83 1021.5
20260902080122 63 322 1.7 3.5 0.00 0.11 0.00 83 1021.3
20260902075522 63 323 0.0 3.5 0.00 0.11 0.00 83 1021.5
20260902074922 62 308 1.7 4.3 0.00 0.11 0.00 84 1021.5
20260902074322 62 263 2.6 3.5 0.00 0.11 0.00 86 1021.5
20260902073722 61 285 1.7 4.3 0.00 0.11 0.00 85 1021.4
20260902073122 61 286 1.7 2.6 0.00 0.11 0.00 87 1021.4
20260902072525 61 340 1.7 2.6 0.00 0.11 0.00 87 1021.4
20260902072022 60 288 0.9 1.7 0.00 0.11 0.00 88 1021.3
20260902071422 60 285 1.7 2.6 0.00 0.11 0.00 88 1021.4
20260902070825 60 280 1.7 2.6 0.00 0.11 0.00 89 1021.5
20260902070223 60 275 0.9 2.6 0.00 0.11 0.00 89 1021.5
20260902065722 59 172 1.7 2.6 0.00 0.11 0.00 89 1021.4
20260902065122 58 275 1.7 2.6 0.00 0.11 0.00 89 1021.4
20260902064622 58 253 0.9 2.6 0.00 0.11 0.00 91 1021.3
20260902064030 58 285 2.6 3.5 0.00 0.11 0.00 91 1021.5
20260902063522 57 258 2.6 3.5 0.00 0.11 0.00 91 1021.4
20260902063022 57 263 2.6 3.5 0.00 0.11 0.00 93 1021.5
20260902062522 56 247 2.6 4.3 0.00 0.11 0.00 95 1021.6
20260902061928 56 275 1.7 3.5 0.00 0.11 0.00 96 1021.5
20260902061422 55 261 1.7 3.5 0.00 0.11 0.00 98 1021.5
20260902060822 54 268 2.6 3.5 0.00 0.11 0.00 98 1021.4
20260902060225 54 271 2.6 3.5 0.00 0.11 0.00 98 1021.7
20260902055631 53 266 2.6 3.5 0.00 0.11 0.00 98 1021.4
20260902055123 53 285 1.7 2.6 0.00 0.11 0.00 98 1021.5
20260902054622 53 301 2.6 4.3 0.00 0.11 0.00 98 1021.5
20260902054122 53 278 3.5 3.5 0.00 0.11 0.00 98 1021.4
20260902053622 53 271 2.6 3.5 0.00 0.11 0.00 98 1021.6
20260902053123 52 257 2.6 3.5 0.00 0.11 0.00 98 1021.7
20260902052622 52 290 2.6 3.5 0.00 0.11 0.00 98 1021.7
20260902052122 52 303 2.6 2.6 0.00 0.11 0.00 98 1021.5
20260902051622 52 304 2.6 2.6 0.00 0.11 0.00 98 1021.4
20260902051025 52 309 1.7 2.6 0.00 0.11 0.00 98 1021.5
20260902050425 52 321 1.7 2.6 0.00 0.11 0.00 98 1021.5
20260902045925 51 297 0.9 1.7 0.00 0.11 0.00 98 1021.3
20260902045326 51 23 1.7 2.6 0.00 0.11 0.00 98 1021.4
20260902044725 51 355 1.7 1.7 0.00 0.11 0.00 98 1021.3
20260902044223 51 31 2.6 2.6 0.00 0.11 0.00 98 1021.4
20260902043623 51 12 1.7 2.6 0.00 0.11 0.00 98 1021.4
20260902043023 51 332 1.7 2.6 0.00 0.11 0.00 97 1021.7
20260902042523 51 350 1.7 2.6 0.00 0.11 0.00 97 1021.6
20260902042022 51 16 1.7 3.5 0.00 0.11 0.00 97 1021.7
20260902041522 51 21 1.7 1.7 0.00 0.11 0.00 97 1021.7
20260902041022 51 322 1.7 2.6 0.00 0.11 0.00 97 1021.8
20260902040522 51 1 1.7 1.7 0.00 0.10 0.00 97 1021.7
20260902035922 51 320 1.7 1.7 0.00 0.10 0.00 97 1021.9
20260902035421 51 17 1.7 1.7 0.00 0.10 0.00 97 1021.8
20260902034921 52 11 2.6 2.6 0.00 0.10 0.00 97 1021.6
20260902034322 52 322 1.7 2.6 0.00 0.10 0.00 97 1021.8
20260902033822 52 283 1.7 2.6 0.00 0.10 0.00 97 1021.7
20260902033321 53 290 1.7 1.7 0.00 0.10 0.00 97 1021.6
20260902032821 53 297 1.7 2.6 0.00 0.10 0.00 97 1021.6
20260902032321 52 289 1.7 2.6 0.00 0.10 0.00 97 1021.8
20260902031821 53 299 0.9 2.6 0.00 0.10 0.00 97 1021.3
20260902031321 53 314 2.6 3.5 0.00 0.10 0.00 97 1021.3
20260902030821 53 305 1.7 2.6 0.00 0.10 0.00 97 1021.5
20260902030321 53 292 1.7 1.7 0.00 0.10 0.00 97 1021.2
20260902025821 52 306 1.7 3.5 0.00 0.10 0.00 96 1021.3
20260902025321 53 285 1.7 2.6 0.00 0.10 0.00 96 1021.4
20260902024821 53 285 1.7 2.6 0.00 0.10 0.00 97 1021.1
20260902024321 53 312 1.7 2.6 0.00 0.10 0.00 96 1021.1
20260902023821 53 327 1.7 3.5 0.00 0.10 0.00 97 1021.3
20260902023321 54 294 1.7 2.6 0.00 0.10 0.00 97 1021.1
20260902022821 53 249 0.0 1.7 0.00 0.10 0.00 97 1021.0
20260902022221 53 318 1.7 2.6 0.00 0.10 0.00 96 1021.2
20260902021621 54 311 1.7 2.6 0.00 0.10 0.00 97 1021.3
20260902021121 54 306 1.7 2.6 0.00 0.10 0.00 96 1021.0
20260902020522 54 321 1.7 1.7 0.00 0.10 0.00 96 1021.2
20260902015921 54 306 1.7 2.6 0.00 0.10 0.00 97 1021.1
20260902015322 54 317 1.7 2.6 0.00 0.10 0.00 97 1021.3
20260902014822 54 318 1.7 2.6 0.00 0.10 0.00 96 1021.3
20260902014321 54 307 1.7 2.6 0.00 0.10 0.00 96 1021.3
20260902013722 54 311 1.7 2.6 0.00 0.10 0.00 96 1021.3
20260902013221 54 295 1.7 2.6 0.00 0.10 0.00 96 1021.4
20260902012721 54 298 1.7 3.5 0.00 0.10 0.00 96 1021.5
20260902012221 55 315 2.6 3.5 0.00 0.10 0.00 96 1021.5
20260902011721 55 313 1.7 2.6 0.00 0.10 0.00 96 1021.2
20260902011221 55 317 1.7 2.6 0.00 0.10 0.00 96 1021.4
20260902010721 55 302 1.7 2.6 0.00 0.10 0.00 96 1021.4
20260902010221 55 296 1.7 2.6 0.00 0.10 0.00 96 1021.4
20260902005721 55 298 1.7 2.6 0.00 0.10 0.00 96 1021.3
20260902005122 55 281 0.9 1.7 0.00 0.10 0.00 95 1021.5
20260902004525 55 326 1.7 2.6 0.00 0.10 0.00 95 1021.4
20260902004022 55 333 0.0 2.6 0.00 0.10 0.00 95 1021.3
20260902003422 55 318 1.7 2.6 0.00 0.10 0.00 95 1021.3
20260902002822 55 291 1.7 2.6 0.00 0.10 0.00 95 1021.3
20260902002222 56 299 1.7 2.6 0.00 0.10 0.00 95 1021.3
20260902001622 56 293 1.7 2.6 0.00 0.10 0.00 95 1021.3
20260902001122 56 287 1.7 2.6 0.00 0.10 0.00 95 1021.4
20260902000522 56 275 1.7 2.6 0.00 0.10 0.00 95 1021.2
20260901235921 56 282 1.7 2.6 0.00 0.10 0.00 95 1021.1
20260901235321 56 303 1.7 2.6 0.00 0.10 0.00 95 1021.1
20260901234722 56 282 1.7 2.6 0.00 0.10 0.00 95 1020.9
20260901234221 56 310 0.9 2.6 0.00 0.10 0.00 95 1021.1
20260901233721 56 315 1.7 2.6 0.00 0.10 0.00 95 1021.0
20260901233221 56 300 2.6 2.6 0.00 0.10 0.00 96 1020.8
20260901232621 56 273 2.6 2.6 0.00 0.10 0.00 96 1020.8
20260901232021 56 296 1.7 2.6 0.00 0.10 0.00 95 1021.2
20260901231421 57 288 1.7 2.6 0.00 0.10 0.00 95 1020.9
20260901230821 57 295 1.7 3.5 0.00 0.10 0.00 95 1020.7
20260901230221 57 303 1.7 2.6 0.00 0.10 0.00 94 1020.9
20260901225621 57 304 1.7 3.5 0.00 0.10 0.00 94 1021.0
20260901225021 58 290 1.7 2.6 0.00 0.10 0.00 94 1021.0
20260901224521 58 322 0.9 2.6 0.00 0.10 0.00 94 1020.9
20260901224021 58 305 1.7 3.5 0.00 0.10 0.00 94 1020.7
20260901223421 58 277 1.7 2.6 0.00 0.10 0.00 94 1020.9
20260901222921 58 316 1.7 3.5 0.00 0.10 0.00 94 1021.0
20260901222321 58 316 1.7 1.7 0.00 0.10 0.00 94 1020.8
20260901221721 58 326 2.6 2.6 0.00 0.10 0.00 94 1020.8
20260901221121 58 321 2.6 3.5 0.00 0.10 0.00 95 1020.7
20260901220521 58 298 1.7 2.6 0.00 0.10 0.00 95 1020.7
20260901220021 58 287 1.7 2.6 0.00 0.10 0.00 94 1020.9
20260901215521 58 282 2.6 3.5 0.00 0.10 0.10 94 1021.1
20260901214921 59 245 2.6 2.6 0.00 0.10 0.10 94 1020.7
20260901214321 59 320 0.9 2.6 0.00 0.10 0.10 94 1020.6
20260901213821 59 343 1.7 2.6 0.00 0.10 0.10 94 1020.7
20260901213221 59 309 1.7 2.6 0.00 0.10 0.10 94 1021.0
20260901212621 59 285 1.7 2.6 0.00 0.10 0.10 94 1020.7
20260901212021 60 314 0.9 2.6 0.00 0.10 0.10 94 1020.9
20260901211421 60 288 1.7 2.6 0.00 0.10 0.10 94 1020.7
20260901210821 60 280 2.6 3.5 0.00 0.10 0.10 93 1020.6
20260901210221 60 300 1.7 2.6 0.00 0.10 0.10 93 1020.8
20260901205721 60 317 0.9 3.5 0.00 0.10 0.10 93 1020.9
20260901205121 60 331 1.7 3.5 0.00 0.10 0.10 93 1020.7
20260901204521 61 279 2.6 3.5 0.00 0.10 0.10 93 1020.8
20260901203921 60 305 3.5 4.3 0.00 0.10 0.10 94 1020.7
20260901203321 60 253 3.5 5.2 0.00 0.10 0.10 95 1020.7
20260901202721 60 279 1.7 2.6 0.00 0.10 0.10 96 1020.7
20260901202121 60 268 1.7 2.6 0.00 0.10 0.10 96 1020.7
20260901201522 60 273 1.7 3.5 0.00 0.10 0.10 96 1020.4
20260901201021 60 267 1.7 2.6 0.00 0.10 0.10 96 1020.7
20260901200422 60 302 1.7 2.6 0.00 0.10 0.10 96 1020.7
20260901195822 60 306 1.7 2.6 0.00 0.10 0.10 95 1020.7
20260901195221 60 279 1.7 1.7 0.00 0.10 0.10 95 1020.6
20260901194621 61 314 1.7 2.6 0.00 0.10 0.10 95 1020.5
20260901194022 61 291 0.9 3.5 0.00 0.10 0.10 95 1020.5
20260901193520 61 327 1.7 2.6 0.00 0.10 0.10 95 1020.3
20260901192921 61 289 1.7 2.6 0.00 0.10 0.10 95 1020.5
20260901192420 61 283 1.7 2.6 0.00 0.10 0.10 95 1020.5
20260901191821 61 347 1.7 3.5 0.00 0.10 0.10 95 1020.4
20260901191222 61 333 0.9 2.6 0.00 0.10 0.10 95 1020.4
20260901190622 61 330 1.7 2.6 0.00 0.10 0.10 95 1020.2
20260901190021 61 340 2.6 2.6 0.00 0.10 0.10 95 1020.0
20260901185421 61 278 1.7 3.5 0.00 0.10 0.10 95 1020.3
20260901184920 61 323 2.6 4.3 0.00 0.10 0.10 95 1020.2
20260901184321 61 285 1.7 5.2 0.00 0.10 0.10 95 1020.0
20260901183820 61 320 1.7 3.5 0.00 0.10 0.10 95 1020.1
20260901183321 61 47 1.7 3.5 0.00 0.10 0.10 95 1020.0
20260901182820 61 330 1.7 4.3 0.00 0.10 0.10 95 1020.1
20260901182320 61 317 2.6 3.5 0.00 0.10 0.10 94 1020.1
20260901181820 61 303 2.6 3.5 0.01 0.10 0.10 94 1019.9
20260901181320 61 313 1.7 2.6 0.01 0.10 0.10 94 1019.8
20260901180820 61 290 3.5 3.5 0.02 0.10 0.10 94 1019.7
20260901180319 61 350 1.7 3.5 0.02 0.10 0.10 94 1019.5
20260901175720 61 56 0.0 2.6 0.02 0.14 0.10 93 1020.0
20260901175219 61 285 0.9 1.7 0.02 0.14 0.10 93 1019.6
20260901174719 61 313 1.7 2.6 0.02 0.14 0.10 93 1019.8
20260901174220 61 284 1.7 2.6 0.03 0.14 0.10 92 1019.5
20260901173620 62 294 1.7 1.7 0.06 0.14 0.10 91 1019.6
20260901173021 62 288 1.7 1.7 0.07 0.14 0.10 90 1019.5
20260901172420 62 289 4.3 6.1 0.09 0.13 0.09 90 1019.8
20260901171820 62 285 2.6 7.0 0.09 0.13 0.09 90 1019.5
20260901171319 61 285 2.6 6.1 0.08 0.12 0.08 90 1019.8
20260901170819 61 298 4.3 5.2 0.08 0.12 0.08 90 1019.7
20260901170319 61 256 0.9 2.6 0.08 0.12 0.08 89 1019.5
20260901165818 62 311 2.6 2.6 0.08 0.17 0.08 88 1019.3
20260901165219 62 335 0.0 3.5 0.08 0.17 0.08 86 1019.4
20260901164719 62 329 1.7 2.6 0.07 0.17 0.07 87 1019.6
20260901164219 63 357 0.9 4.3 0.05 0.15 0.05 85 1019.7
20260901163719 63 302 3.5 10.4 0.04 0.13 0.04 83 1019.8
20260901163219 65 261 4.3 8.7 0.03 0.13 0.03 80 1019.5
20260901162620 70 246 9.6 20.0 0.00 0.10 0.00 72 1019.3
20260901162020 72 288 5.2 7.0 0.00 0.10 0.00 56 1018.6
20260901161519 73 278 2.6 4.3 0.00 0.10 0.00 56 1018.6
20260901160920 73 263 5.2 6.1 0.00 0.10 0.00 55 1018.6
20260901160419 73 245 2.6 7.0 0.00 0.10 0.00 55 1018.4
20260901155820 73 278 4.3 7.0 0.00 0.11 0.00 53 1018.6
20260901155220 74 293 8.7 8.7 0.00 0.11 0.00 53 1018.6
20260901154719 74 289 3.5 4.3 0.00 0.11 0.00 52 1018.7
20260901154120 75 288 4.3 7.8 0.00 0.11 0.00 51 1018.2
20260901153521 76 256 4.3 11.3 0.00 0.11 0.00 48 1018.5
20260901153020 76 291 5.2 7.0 0.00 0.11 0.00 48 1018.2
20260901152519 75 317 2.6 5.2 0.00 0.11 0.00 50 1018.5
20260901152019 74 235 2.6 5.2 0.00 0.11 0.00 51 1018.7
20260901151519 75 277 3.5 6.1 0.00 0.11 0.00 50 1018.3
20260901151019 75 269 5.2 9.6 0.00 0.11 0.00 50 1018.4
20260901150420 74 299 3.5 4.3 0.00 0.11 0.00 51 1018.5
20260901145821 74 275 3.5 7.0 0.00 0.23 0.00 51 1018.4
20260901145320 74 267 4.3 8.7 0.00 0.23 0.00 49 1018.3
20260901144819 75 287 4.3 7.8 0.00 0.23 0.00 49 1018.5
20260901144220 74 252 4.3 7.8 0.00 0.23 0.00 51 1018.6
20260901143719 74 272 3.5 7.8 0.00 0.23 0.00 52 1018.6
20260901143219 75 242 5.2 8.7 0.00 0.23 0.00 51 1018.7
20260901142622 74 268 1.7 9.6 0.00 0.23 0.00 51 1018.7
20260901142119 75 261 6.1 10.4 0.00 0.23 0.00 49 1018.5
20260901141521 76 228 5.2 9.6 0.00 0.23 0.00 48 1018.5
20260901140921 75 275 4.3 8.7 0.00 0.23 0.00 50 1018.5
20260901140321 75 255 3.5 9.6 0.00 0.23 0.00 50 1018.8
20260901135720 75 273 4.3 7.0 0.00 0.23 0.00 51 1018.7
20260901135219 75 252 7.8 9.6 0.00 0.23 0.00 49 1018.9
20260901134719 76 248 6.1 11.3 0.00 0.23 0.00 48 1018.8
20260901134119 76 276 7.0 11.3 0.00 0.23 0.00 48 1018.6
20260901133519 76 254 7.0 9.6 0.00 0.23 0.00 48 1018.7